Champaign, IL

3:58 PM CDT on September 22, 2019 (GMT -0500)
Univ Of Illinois-Willard

Weather History for KCMI - May, 2019

Change the Weather History Date:

Friday, May 24, 2019

  Actual Average Record
Temperature  
Mean Temperature 76 °F 66 °F  
Max Temperature 88 °F 78 °F 91 °F (2007)
Min Temperature 63 °F 54 °F 40 °F (2013)
Degree Days  
Heating Degree Days 0 3  
Month to date heating degree days 136 126  
Since 1 July heating degree days 5899 5790  
Cooling Degree Days 11 4  
Month to date cooling degree days 52 52  
Year to date cooling degree days 55 63  
Growing Degree Days 26 (Base 50)    
Moisture  
Dew Point 66 °F    
Average Humidity 74    
Maximum Humidity 93    
Minimum Humidity 55    
Precipitation  
Precipitation 0.00 in 0.14 in 0.96 in (1998)
Month to date precipitation 3.89 3.59  
Year to date precipitation 16.03 14.20  
Sea Level Pressure  
Sea Level Pressure 30.03 in    
Wind  
Wind Speed 10 mph (SE)    
Max Wind Speed 24 mph    
Max Gust Speed 33 mph    
Visibility 10 miles    
Events      
T = Trace of Precipitation, MM = Missing Value Source: NWS Daily Summary

Daily Weather History Graph

Daily Weather History Graph

Search for Another Location

Airport or City:

Astronomy

May. 24, 2019 Rise Set
Actual Time 5:30 AM CDT 8:09 PM CDT
Civil Twilight 4:59 AM CDT 8:41 PM CDT
Nautical Twilight 4:19 AM CDT 9:20 PM CDT
Astronomical Twilight 3:35 AM CDT 10:05 PM CDT
Moon 12:34 AM CDT (5/24) 10:31 AM CDT (5/24)
Length of Visible Light 15h 41m
Length of Day
14h 38m
Waning Gibbous, 68% of the Moon is Illuminated
May 24
Waning Gibbous
May 26
Last Quarter
Jun 3
New
Jun 10
First Quarter
Jun 17
Full

Hourly Weather History & Observations

Time (CDT) Temp. Heat Index Dew Point Humidity Pressure Visibility Wind Dir Wind Speed Gust Speed Precip Events Conditions
12:53 AM 66.0 °F - 57.9 °F 75% 30.08 in 10.0 mi NE 6.9 mph - N/A   Clear
1:53 AM 63.0 °F - 57.9 °F 84% 30.06 in 10.0 mi ENE 6.9 mph - N/A   Partly Cloudy
2:53 AM 64.0 °F - 57.9 °F 80% 30.06 in 10.0 mi ENE 6.9 mph - N/A   Partly Cloudy
3:53 AM 63.0 °F - 59.0 °F 87% 30.06 in 10.0 mi East 5.8 mph - N/A   Mostly Cloudy
4:53 AM 63.0 °F - 60.1 °F 90% 30.06 in 10.0 mi East 8.1 mph - N/A   Overcast
5:53 AM 64.0 °F - 60.1 °F 87% 30.06 in 10.0 mi ESE 4.6 mph - N/A   Overcast
6:21 AM 64.9 °F - 60.1 °F 84% 30.09 in 10.0 mi East 6.9 mph - N/A   Overcast
6:53 AM 66.0 °F - 60.1 °F 81% 30.09 in 10.0 mi ENE 9.2 mph - N/A   Overcast
7:41 AM 66.9 °F - 60.1 °F 79% 30.09 in 10.0 mi East 5.8 mph - N/A   Scattered Clouds
7:53 AM 66.9 °F - 61.0 °F 81% 30.08 in 10.0 mi East 8.1 mph - N/A   Partly Cloudy
8:53 AM 73.0 °F - 64.9 °F 76% 30.07 in 10.0 mi ESE 11.5 mph - N/A   Clear
9:53 AM 77.0 °F - 70.0 °F 79% 30.06 in 10.0 mi South 9.2 mph - N/A   Clear
10:53 AM 81.0 °F 84.9 °F 71.1 °F 72% 30.05 in 10.0 mi SW 15.0 mph - N/A   Partly Cloudy
11:53 AM 82.0 °F 86.3 °F 71.1 °F 69% 30.06 in 10.0 mi SW 11.5 mph - N/A   Mostly Cloudy
12:46 PM 82.0 °F 86.3 °F 71.1 °F 69% 30.07 in 10.0 mi North 5.8 mph - N/A   Overcast
12:53 PM 84.0 °F 89.6 °F 72.0 °F 67% 30.06 in 10.0 mi NNE 8.1 mph - N/A   Overcast
1:53 PM 84.0 °F 89.0 °F 71.1 °F 65% 30.05 in 10.0 mi Calm Calm - N/A   Partly Cloudy
2:53 PM 86.0 °F 90.1 °F 69.1 °F 57% 30.03 in 10.0 mi Variable 4.6 mph - N/A   Scattered Clouds
3:53 PM 88.0 °F 92.9 °F 70.0 °F 55% 30.00 in 10.0 mi South 15.0 mph - N/A   Scattered Clouds
4:53 PM 84.9 °F 88.8 °F 69.1 °F 59% 29.95 in 10.0 mi South 18.4 mph 28.8 mph N/A   Partly Cloudy
5:53 PM 86.0 °F 89.4 °F 68.0 °F 55% 29.93 in 10.0 mi South 21.9 mph 33.4 mph N/A   Clear
6:53 PM 84.0 °F 87.8 °F 69.1 °F 61% 29.94 in 10.0 mi SSW 17.3 mph - N/A   Clear
7:53 PM 80.1 °F 82.9 °F 69.1 °F 69% 29.94 in 10.0 mi South 9.2 mph - N/A   Clear
8:53 PM 78.1 °F - 69.1 °F 74% 29.94 in 10.0 mi South 10.4 mph - N/A   Clear
9:53 PM 75.9 °F - 68.0 °F 76% 29.96 in 10.0 mi South 9.2 mph - N/A   Clear
10:53 PM 75.0 °F - 66.9 °F 76% 29.96 in 10.0 mi South 11.5 mph - N/A   Clear
11:53 PM 73.9 °F - 66.0 °F 76% 29.96 in 10.0 mi South 11.5 mph - N/A   Clear